Regional Weather Roundup
Issued by NWS

Home | Current Version | Previous Version | Text Only | Print | Product List | Glossary On
Versions: 1 2 3 4 5 6 7 8 9 10 11 12 13 14 15 16 17 18 19 20 21 22 23 24 25 26 27 28 29 30 31 32 33 34 35 36 37 38 39 40 41 42 43 44 45 46 47 48 49 50
000
ASUS43 KMPX 252210
RWRMN
WEATHER ROUNDUP FOR MINNESOTA
NATIONAL WEATHER SERVICE TWIN CITIES/CHANHASSEN MN
500 PM CDT SUN JUN 25 2017


NOTE: "FAIR" INDICATES FEW OR NO CLOUDS BELOW 12,000 FEET WITH NO
SIGNIFICANT WEATHER AND/OR OBSTRUCTIONS TO VISIBILITY. N/A MEANS
CURRENT SKY AND/OR WEATHER CONDITIONS ARE NOT AVAILABLE.

MNZ060>063-068>070-252300-
   Twin Cities Metro

CITY           SKY/WX    TMP DP  RH WIND       PRES   REMARKS
TWIN CITIES    PTSUNNY   68  41  37 NW17G26   30.13S
ST PAUL        MOSUNNY   66  41  40 NW21      30.13S
CRYSTAL        PTSUNNY   68  39  34 W18G25    30.12F
BLAINE         MOSUNNY   66  43  42 NW16G22   30.13S
LAKEVILLE      SUNNY     64  43  45 NW13G24   30.14S
EDEN PRAIRIE   PTSUNNY   69  41  36 NW17G26   30.13S
SOUTH ST PAUL  MOSUNNY   68  41  36 NW18      30.12F
LAKE ELMO      FAIR      64  43  45 NW12G20   30.13S
$$
MNZ001>005-007-008-013>017-022>024-027-028-252300-
   Northwest Minnesota

CITY           SKY/WX    TMP DP  RH WIND       PRES   REMARKS
BEMIDJI        LGT RAIN  55  47  75 NW12G21   30.16S
HALLOCK        MOSUNNY   61  46  59 NW6       30.19S
ROSEAU         LGT RAIN  52  46  82 N6        30.18F
WARROAD        MOSUNNY   57  50  77 W8        30.16F
THIEF RVR FALL MOSUNNY   61  45  55 NE13      30.17F
CROOKSTON      MOSUNNY   66  43  42 N18       30.17F
FOSSTON        PTSUNNY   64  43  45 VRB15G23  30.17S
DETROIT LAKES  MOSUNNY   63  39  42 NW12G22   30.17F
MOORHEAD       MOSUNNY   66  39  37 N13G20    30.17F
PARK RAPIDS    PTSUNNY   65  38  36 NW18G25   30.14F
MAHNOMEN       FAIR      64  38  39 NW15G25   30.16F
$$
MNZ006-009>011-018-025>026-252300-
   North Central Minnesota

CITY           SKY/WX    TMP DP  RH WIND       PRES   REMARKS
BAUDETTE       SUNNY     60  42  51 NW15      30.14F
FLAG ISLAND    SUNNY     57  43  58 NW13      30.14S
INTL FALLS     PTSUNNY   57  45  64 NE8       30.12S
WASKISH        MOSUNNY   59  46  63 NW13      30.14F
BIG FORK       SUNNY     61  45  55 NW9       30.12S
LONGVILLE      MOSUNNY   61  46  59 N6        30.13F
GRAND RAPIDS   PTSUNNY   57  43  59 N15       30.14S
CRANE LAKE     CLOUDY    54  48  82 N7        30.14S
ORR            MOSUNNY   54  41  62 N3        30.10R
COOK           MOSUNNY   57  43  58 N10G17    30.12R
WALKER         CLOUDY    60  43  53 N17       30.14S
$$
MNZ012-019>021-037-252300-
   Northeast Minnesota

CITY           SKY/WX    TMP DP  RH WIND       PRES   REMARKS
DULUTH         PTSUNNY   57  44  62 N14G22    30.07S
ELY            LGT RAIN  50  48  93 NW7G16    30.08S
HIBBING        LGT RAIN  52  48  86 NW10      30.11S
EVELETH        MOSUNNY   58  41  53 N8G17     30.11R
DULUTH HARBOR  CLOUDY    63  46  55 N14G20    30.08F
TWO HARBORS    PTSUNNY   59  48  67 N8        30.06R
SILVER BAY     CLOUDY    55  48  76 NW7       30.04S
GRAND MARAIS     N/A     47  47 100 SW5       30.04F
G MARAIS ARPRT RAIN      46  45  93 CALM      30.04S
$$
MNZ029>031-032-039>041-046>048-054>057-064-252300-
   West Central Minnesota

CITY           SKY/WX    TMP DP  RH WIND       PRES   REMARKS
FERGUS FALLS   MOSUNNY   64  45  48 NW15      30.15F
WHEATON        MOSUNNY   66  43  42 NW14      30.19F
MORRIS         CLOUDY    64  46  52 N14       30.19R
ALEXANDRIA     CLOUDY    63  42  46 NW14G22   30.18F
ELBOW LAKE     HVY RAIN  56  49  77 N12G36    30.20R
WADENA         MOSUNNY   63  45  51 N13       30.15F
GLENWOOD       MOSUNNY   63  43  48 NW13G20   30.18S
APPLETON       CLOUDY    70  43  37 W16G22    30.18F
BENSON         PTSUNNY   66  43  42 N16       30.20S
ORTONVILLE     MOSUNNY   66  46  48 W13G20    30.19F
MADISON        CLOUDY    66  46  48 W16       30.20F
WILLMAR        FAIR      68  43  40 NW18      30.19F
$$
MNZ033>034-036-042>043-049>051-058-059-252300-
   Central Minnesota

CITY           SKY/WX    TMP DP  RH WIND       PRES   REMARKS
ST CLOUD       PTSUNNY   64  40  41 NW14      30.14F
SAUK CENTRE    MOCLDY    65  41  42 NW15G24   30.16F
PAYNESVILLE    PTSUNNY   67  40  37 NW10      30.17F
AITKIN         MOSUNNY   61  45  55 N12G21    30.11S
PINE RIVER     MOSUNNY   61  43  51 NW13G20   30.16S
BRAINERD       MOSUNNY   65  37  35 NW17G26   30.13F
STAPLES        PTSUNNY   63  39  42 NW13      30.15S
LONG PRAIRIE   FAIR      63  39  42 W16       30.16F
LITTLE FALLS   PTSUNNY   64  34  32 NW10G24   30.15F
LITCHFIELD     SUNNY     68  43  40 NW16G29   30.17F
BUFFALO        MOSUNNY   66  37  34 NW10G20   30.16S
MAPLE LAKE     MOSUNNY   67  43  41 NW12G21   30.17S
HUTCHINSON     MOSUNNY   67  43  41 NW14G23   30.18F
$$
MNZ037-044-045-052-053-252300-
   East Central Minnesota

CITY           SKY/WX    TMP DP  RH WIND       PRES   REMARKS
PRINCETON      MOSUNNY   68  39  34 NW16G26   30.13S
MORA           MOSUNNY   64  43  45 N13G22    30.13F
CAMBRIDGE      MOSUNNY   68  46  45 W16       30.11S
RUSH CITY      CLOUDY    63  43  48 W8G25     30.12R
MOOSE LAKE     LGT RAIN  57  43  58 NW12G29   30.10R
HINCKLEY       MOCLDY    64  45  48 W9G16     30.10F
CLOQUET        CLOUDY    59  45  58 NW13G18   30.10S
MCGREGOR       MOSUNNY   61  45  55 NW14      30.13S
$$
MNZ071>073-080-081-089-090-097-098-252300-
   Southwest Minnesota

CITY           SKY/WX    TMP DP  RH WIND       PRES   REMARKS
MONTEVIDEO     CLOUDY    66  43  42 NW13G20   30.20S
GRANITE FALLS  CLOUDY    67  44  43 W12       30.21F
CANBY          LGT RAIN  66  45  47 NW17      30.23F
REDWOOD FALLS  PTSUNNY   67  40  37 NW12      30.19F
OLIVIA         MOSUNNY   70  43  37 N13       30.18F
PIPESTONE      SUNNY     70  39  32 NW13G21   30.23S
WINDOM         MOSUNNY   70  37  30 NW18G24   30.21F
WORTHINGTON    PTSUNNY   67  42  40 NW17      30.22F
JACKSON        SUNNY     68  37  32 N14G21    30.22S
TRACY          CLOUDY    66  43  42 NW14      30.22F
SLAYTON        MOSUNNY   66  42  42 NW15      30.23F
$$
MNZ065>067-074>077-082>085-091>093-252300-
   South Central Minnesota

CITY           SKY/WX    TMP DP  RH WIND       PRES   REMARKS
MANKATO        MOSUNNY   67  39  35 NW21G29   30.17S
NEW ULM        PTSUNNY   70  39  32 NW20G28   30.18F
ST JAMES       PTSUNNY   70  41  35 NW14G21   30.20F
FAIRMONT       MOSUNNY   67  41  38 NW20G28   30.20S
GLENCOE        MOSUNNY   67  44  43 NW20      30.16F
FARIBAULT      MOSUNNY   66  43  42 NW10G24   30.15F
OWATONNA       MOSUNNY   68  43  40 NW20G26   30.15F
WASECA         MOSUNNY   66  41  39 NW18G25   30.17F
ALBERT LEA     PTSUNNY   68  39  34 NW9G21    30.16F
$$
MNZ078>079-086>088-094>096-252300-
   Southeast Minnesota

CITY           SKY/WX    TMP DP  RH WIND       PRES   REMARKS
ROCHESTER      PTSUNNY   64  45  49 NW16G24   30.15F
RED WING       MOSUNNY   70  37  30 NW12G20   30.10F
STANTON        MOSUNNY   66  41  40 NW14G23   30.13S
DODGE CENTER   SUNNY     66  41  39 NW18      30.15S
WINONA         PTSUNNY   70  46  43 NW15G21   30.11F
AUSTIN         MOSUNNY   66  43  42 NW16G23   30.15F
PRESTON        MOSUNNY   64  45  50 NW18      30.15S
$$
ABBREVIATIONS USED IN REMARKS
   TC - TEMPERATURES IN CELSIUS
  WCI - WIND CHILL INDEX
   HX - HEAT INDEX
  VSB - VISIBILITY
$$




USA.gov is the U.S. government's official web portal to all federal, state and local government web resources and services.